STARLINK-5726, 55608

Orbit data source: Space-Track

STARLINK-5726, 55608 is a payload satellite owned by SpaceX/Seattle (US) in LEO that was launched on Sun, 12 Feb 2023 UTC via an FALCON 9 launch vehicle from the Air Force Eastern Test Range (AFETR). Payload-class satellites include a variety of spacecraft equipped with specific instruments for various scientific and technological missions. These include communications satellites like Starlink; space stations such as the ISS; scientific satellites like the Hubble; Earth observation satellites from companies like Planet Labs, Umbra, and HawkEye 360; GPS; miniature CubeSats for education and research; and military/defense satellites.

Loading next visibility...
Identifier
55608, 2023-020AR
Orbit
LEO
Country
Flag of USUS
Related business
Manufacturer
SpaceX/Seattle
Mission
Operational Commercial Communications
Bus & Motor
STARLINK, Unknown motor
Mass
305 kg wet, ~290 kg dry
Launch date (UTC)
2023-02-12 (3 years ago)
Launch vehicle
FALCON 9
Launch site
Air Force Eastern Test Range (AFETR)
Object type
Payload
Rocket body
Debris
Shape & HBR
Box + 1 Pan, 10.1 m
Radar Cross Section
13.562 m², Large (>1 m²)

Expand to show TLE details & history
Last TLE update: 9 hours ago

TLE from 9 hours ago
0 STARLINK-5726
1 55608U 23020AR  26061.94957631  .00001656  00000-0  13765-3 0  9993
2 55608  43.0046  28.4412 0001101 269.3880  90.6836 15.02531062168050
Epoch: 2026-03-02T22:47Z
TLE epoch observation values (Epoch: 2026-03-02T22:47:23.393Z)
Latitude
-0.00002°
Longitude
-114.14194°
Altitude
558.882 km
Speed
7.584 km/s
True Right ascension
01h 53m 45s
True Declination
0° 00' 00"
Sunlit
Object was in daylight at epoch
Visualization orbit readout
Latitude
Unknown
Longitude
Unknown
Altitude
Unknown
Speed
Unknown
Apparent Right ascension
Unknown
Apparent Declination
Unknown
Sunlit
N/A
Visualization observer readout
Local Sidereal Time
11:26:52
Azimuth
Unknown
Elevation
Unknown
Doppler factor
Unknown
Orbital elements
Apogee altitude
561.782 km
Perigee altitude
560.254 km
Semi-major axis
6,939.155 km
Eccentricity
0.00011
Inclination
43.0046°
RAAN
28.4412°
Arg. of periapsis
269.388°
True anomaly
90.69622°
Mean anomaly
90.6836°
Eccentric anomaly
90.68991°
Mean motion
3.75477 °/min
Orbital period
95.88 mins
BSTAR
0.00013765
Loading maneuver chart data...
Computing Atmospheric mass density...

Documentation

Showing up to 5 results
|